Regional Weather Roundup
Issued by NWS Charleston, SC

Home | Current Version | Previous Version | Text Only | Print | Product List | Glossary On
Versions: 1 2 3 4 5 6 7 8 9 10 11 12 13 14 15 16 17 18 19 20 21 22 23 24 25 26 27 28 29 30 31 32 33 34 35 36 37 38 39 40 41 42 43 44 45 46 47 48 49 50
000
ASUS42 KCHS 171712
RWRCHS

REGIONAL WEATHER ROUNDUP
NATIONAL WEATHER SERVICE CHARLESTON SC
100 PM EDT TUE OCT 17 2017

NOTE: "FAIR" INDICATES FEW OR NO CLOUDS BELOW 12,000 FEET WITH NO
SIGNIFICANT WEATHER AND/OR OBSTRUCTIONS TO VISIBILITY.

NOT ALL STATIONS ARE QUALITY CONTROLLED. USE DATA WITH CAUTION...
ESPECIALLY DEWPOINT OBSERVATIONS.

SCZ027-030-031-034>040-042>050-171800-
...SOUTHEAST SOUTH CAROLINA...

CITY           SKY/WX    TMP DP  RH WIND       PRES   REMARKS
N CHARLESTON   PTSUNNY   60  45  57 NE14      30.28F
WATERFRONT PRK   N/A     61  52  72 N18       30.12S
JOHNS ISLAND   FAIR      61  46  59 N13G18    30.27F
PINOPOLIS        N/A     61  46  59 NE15      30.21S
MONCKS CORNER  FAIR      64  37  36 NE15G21   30.29F
SUMMERVILLE    FAIR      64  43  45 N14G20    30.30F
BEAUFORT MCAS  PTSUNNY   64  47  53 NE12G21   30.27F
BEAUFORT ARPT  FAIR      59  45  58 NE20G28   30.27S HAZE
HILTON HEAD IS PTSUNNY   61  46  59 N14G25    30.26F
WALTERBORO     SUNNY     64  39  39 NE12G20   30.30F
ALLENDALE      NOT AVBL

...SOUTHERN MIDLANDS AND PEE DEE...

CITY           SKY/WX    TMP DP  RH WIND       PRES   REMARKS
GEORGETOWN     FAIR      59  45  58 N16       30.29F
KINGSTREE      FAIR      64  37  36 NE8       30.31F
ORANGEBURG     SUNNY     65  36  34 NE8G21    30.31F
BARNWELL         N/A     66  39  37 NE12G20   30.31F
AIKEN          FAIR      63  37  39 NE9G20    30.35F
MANNING        HAZE      64  43  45 MISG      30.31F VSB 1/4
COLUMBIA       MOSUNNY   66  39  37 NE10G17   30.32F
SUMTER         MOSUNNY   65  33  30 NE18      30.30F
FLORENCE       SUNNY     65  40  39 NE13G21   30.32F
MYRTLE BEACH   PTSUNNY   60  46  59 N16G24    30.30S
N MYRTLE BEACH CLOUDY    60  46  59 N15G23    30.28F

$$

GAZ063-065-086>088-099>101-113>116-118-119-134>141-150-171800-
...SOUTHEAST GEORGIA...

CITY           SKY/WX    TMP DP  RH WIND       PRES   REMARKS
SAVANNAH ARPT  PTSUNNY   65  48  54 NE12G22   30.26
HUNTER AAF     PTSUNNY   61  47  60 NE9       30.23F
FORT STEWART   MOSUNNY   65  48  52 N16G23    30.24F
STATESBORO     SUNNY     67  35  30 NE8G18    30.28F
SYLVANIA       SUNNY     67  44  42 E12       30.30F
CLAXTON        FAIR      68  44  41 N8        30.27F

...CSRA...CENTRAL AND FAR SOUTHEAST GEORGIA...

CITY           SKY/WX    TMP DP  RH WIND       PRES   REMARKS
THOMSON        SUNNY     65  40  39 E13G18    30.37F
AUGUSTA-BUSH   SUNNY     69  39  33 E14       30.31F
AUGUSTA-DANIEL SUNNY     67  37  33 NE10      30.32F
SWAINSBORO     FAIR      66  37  34 MISG      30.29F
VIDALIA        SUNNY     70  41  35 E16       30.27F
EASTMAN        FAIR      70  18  13 NE12      30.30F
HAZLEHURST     FAIR      69  16  13 NE9G20    30.25F
ALMA           SUNNY     69  45  41 VRB7      30.24F
WAYCROSS       CLOUDY    66  46  47 E10G20    30.24F
JESUP          NOT AVBL
BAXLEY         FAIR      64  43  45 E12G18    30.25F
BRUNSWICK      CLOUDY    64  52  63 N14G23    30.23S
SAINT SIMONS   CLOUDY    67  56  67 N12G23    30.20F

$$

SCZ027-028-034-036>038-045-046-048>050-GAZ119-141-171800-
...LAKE AND SUPPLEMENTAL COASTAL OBSERVATIONS...

STATION/POSITION TIME  TEMP    WIND        PRES    WAVE   SWELL
                       AIR SEA DIR/SP/G            HT/PER HT/PER/DIR
                 (UTC) (F)     (DEG/KT/KT) (MB)    (FT/S) (FT/S/D)
WINYAH BAY       1545   59      30/ 10     1025.0
LAKE MURRAY      1620   62      50/  4/ 10 1026.8
ACE BASIN NERRS  NOT AVBL
FORT PULASKI     1642   61 77   30/ 17/ 21 1024.6F
SAPELO ISLAND    1600   65      20/ 15     1024.0

$$

ANZ835-935-AMZ111-154-330-350-352-354-370-450-454-472-171800-
...C-MAN AND BUOY OBSERVATIONS...

STATION/POSITION TIME  TEMP    WIND        PRES    WAVE   SWELL
                       AIR SEA DIR/SP/G            HT/PER HT/PER/DIR
                 (UTC) (F)     (DEG/KT/KT) (MB)    (FT/S) (FT/S/D)
BUOY 41004       1650   68 80   30/ 23/ 29 1022.5F   9/ 7   2/130/11
BUOY 41008       1650   67 78   30/ 25/ 29 1022.0F   7/ 6   2/ 90/11
FOLLY BEACH CMAN 1600   60      10/ 21/ 24 1025.3R
CAPERS NEARSHORE 1608   60 76   30/ 21/ 27 1024.2R
FRIPP NEARSHORE  1608   63      30/ 19/ 27   N/A


STATION/POSITION TIME  TEMP    WIND        PRES    WAVE   SWELL
                       AIR SEA DIR/SP/G            HT/PER HT/PER/DIR
                 (UTC) (F)     (DEG/KT/KT) (MB)    (FT/S) (FT/S/D)
5E ST. MARYS GA  1630      79                N/A     7/ 6   2/110/12
FRYING PAN BUOY  1650   67 77   30/ 23/ 29 1023.2F   8/ 8   3/100/10
BUOY 41025       1650   64 81   20/ 23/ 27 1023.5F   9/ 9   5/ 50/ 9
CAPE LOOKOUT NC  1600   63      30/ 21/ 26 1024.5R
BUOY 41002       1650   77 78   40/ 21/ 25 1017.1F  12/10   8/ 40/10
BUOY 41010       NOT AVBL
ST AUGUSTINE FL  1700   74 80   20/ 28/ 31 1019.8F


$$



USA.gov is the U.S. government's official web portal to all federal, state and local government web resources and services.